Regional Weather Roundup
Issued by NWS

Home | Current Version | Previous Version | Graphics & Text | Print | Product List | Glossary On
Versions: 1 2 3 4 5 6 7 8 9 10 11 12 13 14 15 16 17 18 19 20 21 22 23 24 25 26 27 28 29 30 31 32 33 34 35 36 37 38 39 40 41 42 43 44 45 46 47 48 49 50
000
ASUS45 KCYS 230410
RWRWY

WYOMING REGIONAL WEATHER ROUNDUP
NATIONAL WEATHER SERVICE CHEYENNE WY
1000 PM MDT SUN OCT 22 2017

NOTE:  "FAIR" INDICATES FEW OR NO CLOUDS BELOW 12,000 FEET
WITH NO SIGNIFICANT WEATHER AND/OR OBSTRUCTIONS TO VISIBILITY.

WYZ001-230500-
YELLOWSTONE NATIONAL PARK

CITY           SKY/WX    TMP DP  RH WIND       PRES   REMARKS
LK YELLOWSTONE   N/A     36  34  92 VRB7      30.30R WCI  30
W YELLOWSTONE  NOT AVBL

$$
WYZ002>013-054>058-071-098>099-230500-
NORTHERN WYOMING

CITY           SKY/WX    TMP DP  RH WIND       PRES   REMARKS
JACKSON        CLOUDY    47  34  60 SW22G36   30.29S
CODY           FAIR      48  37  65 NE9       30.13R
GREYBULL       MOCLDY    53  39  59 NW12G23   30.12R
WORLAND        FAIR      51  38  60 N12       30.10R
SHERIDAN       CLOUDY    52  36  54 NW23G32   30.07R
BUFFALO        CLOUDY    50  36  58 N25G33    30.09R
GILLETTE       CLOUDY    50  36  58 NW16      30.07R
HULETT         MOCLDY    52  34  50 W14G25    30.03R
NEWCASTLE      FAIR      54  30  40 NW21G29   30.04R

$$
WYZ014>020-022>026-101>103-230500-
CENTRAL WYOMING

CITY           SKY/WX    TMP DP  RH WIND       PRES   REMARKS
BIG PINEY      CLOUDY    46  31  55 NW7       30.36R
PINEDALE       CLOUDY    43  32  65 W10       30.35S
DUBOIS         RAIN      37  34  87 NW21G28   30.24R WCI  27
LANDER         FAIR      53  29  39 E7        30.12S
RIVERTON       FAIR      53  29  39 VRB6      30.15R
CASPER         FAIR      48  30  49 SW15      30.13R
DOUGLAS        FAIR      55  30  38 NW13G22   30.07R

$$
WYZ021-027>030-104>119-230500-
SOUTHERN WYOMING

CITY           SKY/WX    TMP DP  RH WIND       PRES   REMARKS
EVANSTON       CLOUDY    49  26  41 SW8       30.44R
KEMMERER       CLOUDY    46  28  49 W16G24    30.40S
FORT BRIDGER   CLOUDY    51  26  38 W15G23    30.43R
ROCK SPRINGS   CLOUDY    49  25  39 SW24      30.36S
DIXON          CLOUDY    50  27  41 SW8       30.40S
RAWLINS        FAIR      50  25  37 W25G39    30.29R
SARATOGA       FAIR      50  28  43 W15G25    30.32R
LARAMIE        CLOUDY    47  25  42 SW6       30.25R
CHEYENNE       FAIR      53  26  35 E6        30.16R
TORRINGTON     FAIR      63  27  25 W23G29    30.04R
PINE BLUFFS    FAIR      48  27  43 W3        30.13R

$$



USA.gov is the U.S. government's official web portal to all federal, state and local government web resources and services.